Location: Unspecified
(0.0000°N, 0.0000°E)
Time: 21:42:21
(UTC+01:00)

ASC 2 Rocket - Visible Passes

Search period start: 25 November 2014 00:00
Search period end: 05 December 2014 00:00
Orbit: 556 x 2349 km, 24.0° (Epoch: 24 November)

Date Brightness Start Highest point End Pass type
(mag) Time Alt. Az. Time Alt. Az. Time Alt. Az.
25 Nov 5.9 20:26:23 10° SW 20:39:13 63° SSE 20:45:57 37° E visible
25 Nov 6.2 22:30:58 10° WSW 22:40:48 51° W 22:40:48 51° W visible
26 Nov 6.3 05:02:45 10° N 05:02:45 10° N 05:02:51 10° N visible
26 Nov 6.2 19:20:19 10° SW 19:31:26 48° SSE 19:44:04 13° E visible
26 Nov 5.6 21:23:38 10° WSW 21:37:21 88° NNW 21:38:55 77° NE visible
26 Nov 7.2 23:29:52 10° W 23:33:46 21° W 23:33:46 21° W visible
27 Nov 5.9 05:57:48 10° NNW 06:00:52 13° N 06:03:31 10° NE visible
27 Nov 5.8 20:17:02 10° WSW 20:29:27 74° SSE 20:37:03 35° ENE visible
27 Nov 6.2 22:21:43 10° WSW 22:31:54 50° WNW 22:31:54 50° WNW visible
28 Nov 6.2 04:54:08 14° N 04:54:17 14° N 04:57:40 10° NNE visible
28 Nov 6.0 19:11:06 10° SW 19:21:50 57° SSE 19:35:12 11° E visible
28 Nov 5.7 21:14:24 10° WSW 21:27:31 75° NNW 21:30:02 65° NNE visible
28 Nov 7.2 23:20:55 10° W 23:24:53 21° WNW 23:24:53 21° WNW visible
29 Nov 5.7 05:47:14 10° NNW 05:52:30 20° N 05:56:39 10° ENE visible
29 Nov 5.7 20:07:52 10° WSW 20:19:41 87° SSE 20:28:11 32° ENE visible
29 Nov 6.3 22:12:43 10° W 22:23:02 46° NW 22:23:02 46° NW visible
30 Nov 6.1 04:45:29 19° N 04:45:54 19° N 04:50:44 10° NE visible
30 Nov 5.7 19:02:00 10° SW 19:12:12 68° SSE 19:26:08 10° ENE visible
30 Nov 5.8 21:05:25 10° WSW 21:17:47 63° NNW 21:21:12 53° NNE visible
30 Nov 7.2 23:12:12 10° WNW 23:16:03 20° WNW 23:16:03 20° WNW visible
01 Dec 6.7 03:43:44 12° NE 03:43:44 12° NE 03:44:38 10° NE visible
01 Dec 5.4 05:38:35 15° NW 05:44:02 28° NNE 05:49:12 10° ENE visible
01 Dec 5.6 19:58:54 10° WSW 20:10:00 79° NNW 20:19:22 27° ENE visible
01 Dec 6.4 22:03:59 10° W 22:14:13 41° NW 22:14:13 41° NW visible
02 Dec 5.9 04:36:49 25° N 04:37:24 25° N 04:43:21 10° ENE visible
02 Dec 5.5 18:53:04 10° WSW 19:02:39 81° SSE 19:16:20 10° ENE visible
02 Dec 6.0 20:56:40 10° W 21:08:13 52° NNW 21:12:22 43° NNE visible
02 Dec 7.2 23:03:40 10° WNW 23:07:13 19° WNW 23:07:13 19° WNW visible
03 Dec 6.6 03:35:03 16° NE 03:35:03 16° NE 03:37:09 10° ENE visible
03 Dec 5.1 05:29:54 20° NW 05:35:26 41° NNE 05:41:22 10° E visible
03 Dec 5.7 19:50:09 10° WSW 20:00:28 65° NNW 20:10:31 22° NE visible
03 Dec 6.5 21:55:30 10° WNW 22:05:22 35° NNW 22:05:22 35° NNW visible
04 Dec 5.7 04:28:07 34° N 04:28:45 34° NNE 04:35:39 10° ENE visible
04 Dec 6.2 20:48:11 10° W 20:58:50 43° NNW 21:03:31 34° NNE visible
04 Dec 7.2 22:55:17 10° WNW 22:58:22 17° NW 22:58:22 17° NW visible
